Location: Detroit
(42.3310°N, 83.0460°W)
Time: 11:21:08
(UTC-05:00)

deb Explorer IX - All Passes

Search period start: 29 January 2023 00:00
Search period end: 08 February 2023 00:00
Orbit: 534 x 1049 km, 38.8° (Epoch: 29 January)

Date Brightness Start Highest point End Pass type
(mag) Time Alt. Az. Time Alt. Az. Time Alt. Az.
29 Jan - 06:07:19 10° SSW 06:10:37 24° SSE 06:13:55 10° ESE visible
29 Jan - 07:52:16 10° WSW 07:56:10 50° S 08:00:19 10° E daylight
29 Jan - 09:37:58 10° W 09:41:57 45° S 09:46:22 10° ESE daylight
29 Jan - 11:24:14 10° WSW 11:27:37 21° SSW 11:31:20 10° SSE daylight
30 Jan - 05:35:01 10° SSW 05:38:13 22° SSE 05:41:23 10° ESE visible
30 Jan - 07:19:53 10° WSW 07:23:46 48° S 07:27:47 10° E visible
30 Jan - 09:05:36 10° W 09:09:31 46° S 09:13:48 10° ESE daylight
30 Jan - 10:51:48 10° WSW 10:55:10 22° SSW 10:58:51 10° SSE daylight
31 Jan - 05:02:41 10° SSW 05:05:48 21° SSE 05:08:51 10° ESE visible
31 Jan - 06:47:28 10° WSW 06:51:20 46° S 06:55:16 10° E visible
31 Jan - 08:33:11 10° W 08:37:05 47° S 08:41:14 10° ESE daylight
31 Jan - 10:19:21 10° WSW 10:22:42 23° SSW 10:26:20 10° SSE daylight
01 Feb - 04:30:19 10° SSW 04:33:22 19° SSE 04:36:19 10° ESE visible
01 Feb - 06:15:00 10° WSW 06:18:54 44° S 06:22:46 10° E visible
01 Feb - 08:00:45 10° W 08:04:38 48° S 08:08:41 10° ESE daylight
01 Feb - 09:46:53 10° WSW 09:50:15 24° SSW 09:53:50 10° SSE daylight
02 Feb - 03:57:54 10° SSW 04:00:54 18° SSE 04:03:46 10° ESE visible
02 Feb - 05:42:29 10° WSW 05:46:26 43° S 05:50:15 10° E visible
02 Feb - 07:28:15 10° W 07:32:10 49° S 07:36:08 10° ESE daylight
02 Feb - 09:14:24 10° WSW 09:17:46 25° SSW 09:21:20 10° SE daylight
03 Feb - 03:25:28 10° SSW 03:28:25 17° SSE 03:31:12 10° ESE night (unlit)
03 Feb - 05:09:56 10° WSW 05:13:57 41° SSE 05:17:46 10° E visible
03 Feb - 06:55:44 10° W 06:59:40 50° S 07:03:36 10° ESE visible
03 Feb - 08:41:53 10° W 08:45:17 27° SSW 08:48:51 10° SE daylight
04 Feb - 02:53:00 10° S 02:55:54 16° SSE 02:58:37 10° ESE night (unlit)
04 Feb - 04:37:19 10° SW 04:41:27 40° SSE 04:45:17 10° E visible
04 Feb - 06:23:09 10° W 06:27:10 51° S 06:31:05 10° ESE visible
04 Feb - 08:09:19 10° W 08:12:47 28° SSW 08:16:22 10° SE daylight
05 Feb - 02:20:30 10° S 02:23:20 16° SSE 02:26:00 10° ESE night (unlit)
05 Feb - 04:04:40 10° SW 04:08:54 38° SSE 04:12:47 10° E visible
05 Feb - 05:50:31 10° WSW 05:54:39 52° S 05:58:34 10° ESE visible
05 Feb - 07:36:43 10° W 07:40:17 30° SSW 07:43:52 10° SE daylight
06 Feb - 01:47:59 10° S 01:50:45 15° SSE 01:53:21 10° ESE night (unlit)
06 Feb - 03:31:59 10° SW 03:36:20 37° SSE 03:40:16 10° E visible
06 Feb - 05:17:50 10° WSW 05:22:06 53° S 05:26:03 10° ESE visible
06 Feb - 07:04:04 10° W 07:07:45 32° SSW 07:11:22 10° SE visible
06 Feb - 08:52:40 10° SW 08:53:02 10° SSW 08:53:25 10° SSW daylight
07 Feb - 01:15:27 10° S 01:18:08 14° SSE 01:20:40 10° ESE night (unlit)
07 Feb - 02:59:15 10° SW 03:03:44 36° SSE 03:07:45 10° E night (unlit)
07 Feb - 04:45:07 10° WSW 04:49:31 54° S 04:53:32 10° ESE visible
07 Feb - 06:31:23 10° W 06:35:12 35° SSW 06:38:53 10° SE visible
07 Feb - 08:19:10 10° SW 08:20:30 11° SSW 08:21:50 10° SSW daylight
